World > North America > United States > Texas > Old London  

Old London, TX Hourly Weather Updates

Feedback E-mail the Weather

Quick WX

Old London, TX Weather Maps

°F °C°F °C
Old London Weather Map
UTC Time: 3/5/2024, 11:57
Your Time:

Old London, TX Regional Weather

Expires:202403051200;;439849
ASUS44 KFWD 051115
RWRTX 
NORTH TEXAS HOURLY WEATHER ROUNDUP
NATIONAL WEATHER SERVICE FORT WORTH TX
500 AM CST TUE MAR 05 2024

NOTE: "FAIR" INDICATES FEW OR NO CLOUDS BELOW 12,000 FEET WITH NO
SIGNIFICANT WEATHER AND/OR OBSTRUCTIONS TO VISIBILITY.


TXZ095>097-106>112-122>126-135>138-148>153-164>167-051200-
EAST TEXAS
  
CITY           SKY/WX    TMP DP  RH WIND       PRES   REMARKS
PARIS          CLOUDY    67  67 100 E7        29.78F FOG              
SULPHUR SPRNGS FAIR      66  66 100 SE3       29.81R FOG              
MOUNT PLEASANT CLOUDY    66 N/A N/A SE6       29.77F FOG              
GILMER         FAIR      66  64  92 SE3       29.78F                  
MINEOLA        FAIR      68  68 100 CALM      29.75F                  
TYLER          TSTM      67  61  81 SE20      29.73F                  
LONGVIEW       MOCLDY    66  63  90 SE5       29.76S THUNDER          
MARSHALL       MOCLDY    65  65 100 E5        29.80R                  
ATHENS         MOCLDY    61  55  82 SE7       29.77R                  
PALESTINE      CLOUDY    68  59  73 N14G23    29.79R                  
JACKSONVILLE   MOCLDY    66  62  87 N16G23    29.83R                  
CENTER           N/A     64  57  77 NW10      29.79F                  
NACOGDOCHES    CLOUDY    63  63 100 VRB5      29.83R                  
LUFKIN         CLOUDY    69  69 100 E5        29.78F FOG              
$$

SUPPLEMENTAL OBSERVATIONS (NWS FORT WORTH AREA)
  
CITY           SKY/WX    TMP DP  RH WIND       PRES   REMARKS
CADDO GRASSLND   N/A     59  54  82 NE1         N/A                   
LBJ GRASSLAND    N/A     57  45  62 NW1         N/A                   
COMANCHE         N/A     61  55  82 SW13        N/A                   
MCGREGOR         N/A     61  59  94 SW2         N/A                   
LAKE LIMESTONE   N/A     66  63  88 S3          N/A                   
$$

SUPPLEMENTAL OBSERVATIONS (NWS NORMAN AREA)
  
CITY           SKY/WX    TMP DP  RH WIND       PRES   REMARKS
GOODLETT         N/A     40  31  69 NW12      29.88  WCI  34          
ODELL            N/A     39  35  85 NW5       29.88S WCI  35          
CROWELL          N/A     44  31  60 NW8       29.88R WCI  39          
KNOX CITY        N/A     42  34  73 N7        29.85  WCI  38          
SEYMOUR          N/A     44  35  73 NW10      29.85R WCI  38          
MILLERS CREEK    N/A     43  34  70 NW8         N/A  WCI  38          
$$

SUPPLEMENTAL OBSERVATIONS (NWS SAN ANGELO AREA)
  
CITY           SKY/WX    TMP DP  RH WIND       PRES   REMARKS
WEINERT          N/A     43  34  70 VRB5      29.85S WCI  40          
HASKELL          N/A     44  33  64 N9        29.83  WCI  39          
THROCKMORTON     N/A     49  36  61 N5        29.83                   
STAMFORD         N/A     39  36  88 W8        29.86  WCI  33          
CLYDE            N/A     48  35  61 W3        29.86R                  
HAMBY            N/A     39  34  81 SE3         N/A                   
IVIE RESERVOIR   N/A     55  52  88 NW8         N/A                   
COLORADO BEND    N/A     54  52  94 W1          N/A                   
$$

SUPPLEMENTAL OBSERVATIONS (NWS SHREVEPORT AREA)
  
CITY           SKY/WX    TMP DP  RH WIND       PRES   REMARKS
TEXARKANA        N/A     63  59  88 E3          N/A                   
LINDEN           N/A     64  63  94 E3          N/A                   
CADDO LAKE       N/A     66  64  94 S1          N/A                   
LUFKIN           N/A     70  68  94 MISG        N/A                   
N SABINE NF      N/A     66  64  94 MISG        N/A                   
$$

SUPPLEMENTAL OBSERVATIONS ARE A COLLECTION OF AUTOMATED INSTRUMENTS
THAT ARE MAINTAINED BY A VARIETY OF FEDERAL AND STATE AGENCIES. 
CERTAIN ELEMENTS...SUCH AS HUMIDITY VALUES AND SUSTAINED WIND 
SPEEDS...MAY BE APPROXIMATED.

  

SKY/WX - Weather  TMP - Temperature  DP - Dew Point  RH - Humidity
WIND - Wind Direction/Speed PRES - Barometric Pressure VSB - Visibility
WCI - Wind Chill Index E13G22 Wind - East Wind 13 mph/Gusts of 22 mph

Trending Headlines

Trending Entertainment Headlines

Old London Radar Loop

Use the map search tool if you want to place a location marker on the radar map...

Old London Quick Facts

National Two Day Weather Forecast


E-mail the Old London Weather Forecast

Voice your opinion or tell us about page issues...